Time,TemperatureF,DewpointF,PressureIn,WindDirection,WindDirectionDegrees,WindSpeedMPH,WindSpeedGustMPH,Humidity,HourlyPrecipIn,Conditions,Clouds,dailyrainin,SoftwareType,DateUTC
2013-03-31 00:00:00,57.5,27.9,29.93,NE,37,0.0,1.0,32,0.00,,SKC,0.00,VWS V14.01,2013-03-31 07:00:00,
2013-03-31 00:05:00,57.3,28.5,29.92,NE,37,0.0,0.0,33,0.00,,SKC,0.00,VWS V14.01,2013-03-31 07:05:00,
2013-03-31 00:10:00,57.2,28.4,29.93,NE,37,0.0,0.0,33,0.00,,SKC,0.00,VWS V14.01,2013-03-31 07:10:00,
2013-03-31 00:15:00,57.1,28.3,29.93,NE,37,0.0,1.0,33,0.00,,SKC,0.00,VWS V14.01,2013-03-31 07:15:00,
2013-03-31 00:20:00,56.8,28.0,29.93,NE,37,2.0,2.0,33,0.00,,SKC,0.00,VWS V14.01,2013-03-31 07:20:00,
2013-03-31 00:25:00,57.0,28.2,29.92,NE,37,0.0,2.0,33,0.00,,SKC,0.00,VWS V14.01,2013-03-31 07:25:00,
2013-03-31 00:31:00,57.0,28.2,29.93,NE,37,2.0,2.0,33,0.00,,SKC,0.00,VWS V14.01,2013-03-31 07:31:00,
2013-03-31 00:36:00,57.1,28.3,29.93,NE,37,0.0,3.0,33,0.00,,SKC,0.00,VWS V14.01,2013-03-31 07:36:00,
2013-03-31 00:41:00,57.2,28.4,29.93,NE,37,0.0,3.0,33,0.00,,SKC,0.00,VWS V14.01,2013-03-31 07:41:00,
2013-03-31 00:46:00,57.1,28.3,29.93,NE,37,0.0,3.0,33,0.00,,SKC,0.00,VWS V14.01,2013-03-31 07:46:00,
2013-03-31 00:51:00,57.0,28.2,29.93,NE,37,0.0,0.0,33,0.00,,SKC,0.00,VWS V14.01,2013-03-31 07:51:00,
2013-03-31 00:56:00,56.8,28.0,29.93,NE,37,0.0,1.0,33,0.00,,SKC,0.00,VWS V14.01,2013-03-31 07:56:00,
2013-03-31 01:01:00,56.9,28.1,29.93,NE,37,0.0,1.0,33,0.00,,SKC,0.00,VWS V14.01,2013-03-31 08:01:00,
2013-03-31 01:06:00,56.8,28.0,29.93,NE,37,0.0,5.0,33,0.00,,SKC,0.00,VWS V14.01,2013-03-31 08:06:00,
2013-03-31 01:12:00,56.5,27.8,29.93,NE,37,0.0,5.0,33,0.00,,SKC,0.00,VWS V14.01,2013-03-31 08:12:00,
2013-03-31 01:17:00,55.8,27.1,29.93,NE,37,0.0,5.0,33,0.00,,SKC,0.00,VWS V14.01,2013-03-31 08:17:00,
2013-03-31 01:22:00,55.3,26.7,29.93,NE,37,0.0,0.0,33,0.00,,SKC,0.00,VWS V14.01,2013-03-31 08:22:00,
2013-03-31 01:27:00,54.8,26.3,29.93,NE,37,0.0,1.0,33,0.00,,SKC,0.00,VWS V14.01,2013-03-31 08:27:00,
2013-03-31 01:32:00,54.7,26.9,29.93,NE,37,0.0,0.0,34,0.00,,SKC,0.00,VWS V14.01,2013-03-31 08:32:00,
2013-03-31 01:37:00,54.7,26.2,29.93,NE,37,0.0,0.0,33,0.00,,SKC,0.00,VWS V14.01,2013-03-31 08:37:00,
2013-03-31 01:42:00,54.6,26.1,29.93,NE,37,0.0,1.0,33,0.00,,SKC,0.00,VWS V14.01,2013-03-31 08:42:00,
2013-03-31 01:47:00,54.7,26.2,29.93,NE,37,0.0,0.0,33,0.00,,SKC,0.00,VWS V14.01,2013-03-31 08:47:00,
2013-03-31 01:52:00,54.8,26.3,29.93,NE,37,2.0,2.0,33,0.00,,SKC,0.00,VWS V14.01,2013-03-31 08:52:00,
2013-03-31 01:57:00,55.0,26.5,29.93,NE,37,0.0,2.0,33,0.00,,SKC,0.00,VWS V14.01,2013-03-31 08:57:00,
2013-03-31 02:02:00,55.4,26.8,29.93,NE,37,0.0,0.0,33,0.00,,SKC,0.00,VWS V14.01,2013-03-31 09:02:00,
2013-03-31 02:07:00,55.8,27.1,29.93,NE,37,0.0,1.0,33,0.00,,SKC,0.00,VWS V14.01,2013-03-31 09:07:00,
2013-03-31 02:12:00,56.1,26.7,29.93,NE,37,0.0,1.0,32,0.00,,SKC,0.00,VWS V14.01,2013-03-31 09:12:00,
2013-03-31 02:17:00,56.0,26.6,29.93,NE,37,0.0,0.0,32,0.00,,SKC,0.00,VWS V14.01,2013-03-31 09:17:00,
2013-03-31 02:22:00,56.0,26.6,29.93,NE,37,0.0,0.0,32,0.00,,SKC,0.00,VWS V14.01,2013-03-31 09:22:00,
2013-03-31 02:28:00,55.9,26.5,29.93,NE,37,0.0,0.0,32,0.00,,SKC,0.00,VWS V14.01,2013-03-31 09:28:00,
2013-03-31 02:33:00,56.0,26.6,29.93,NE,37,0.0,0.0,32,0.00,,SKC,0.00,VWS V14.01,2013-03-31 09:33:00,
2013-03-31 02:38:00,55.8,26.4,29.93,NE,37,0.0,0.0,32,0.00,,SKC,0.00,VWS V14.01,2013-03-31 09:38:00,
2013-03-31 02:43:00,55.6,26.2,29.93,NE,37,0.0,0.0,32,0.00,,SKC,0.00,VWS V14.01,2013-03-31 09:43:00,
2013-03-31 02:48:00,55.5,26.1,29.93,NE,37,0.0,0.0,32,0.00,,SKC,0.00,VWS V14.01,2013-03-31 09:48:00,
2013-03-31 02:53:00,55.5,26.1,29.93,NE,37,0.0,3.0,32,0.00,,SKC,0.00,VWS V14.01,2013-03-31 09:53:00,
2013-03-31 02:58:00,55.4,26.0,29.93,NE,37,0.0,3.0,32,0.00,,SKC,0.00,VWS V14.01,2013-03-31 09:58:00,
2013-03-31 03:03:00,55.2,25.9,29.92,NE,37,0.0,2.0,32,0.00,,SKC,0.00,VWS V14.01,2013-03-31 10:03:00,
2013-03-31 03:08:00,55.0,26.5,29.92,NE,37,2.0,4.0,33,0.00,,SKC,0.00,VWS V14.01,2013-03-31 10:08:00,
2013-03-31 03:13:00,54.9,26.4,29.92,NE,37,0.0,4.0,33,0.00,,SKC,0.00,VWS V14.01,2013-03-31 10:13:00,
2013-03-31 03:18:00,54.8,26.3,29.93,NE,37,2.0,3.0,33,0.00,,SKC,0.00,VWS V14.01,2013-03-31 10:18:00,
2013-03-31 03:23:00,54.8,26.3,29.92,NE,37,0.0,3.0,33,0.00,,SKC,0.00,VWS V14.01,2013-03-31 10:23:00,
2013-03-31 03:28:00,54.8,26.3,29.93,NE,37,3.0,3.0,33,0.00,,SKC,0.00,VWS V14.01,2013-03-31 10:28:00,
2013-03-31 03:33:00,54.6,26.1,29.92,NE,37,0.0,3.0,33,0.00,,SKC,0.00,VWS V14.01,2013-03-31 10:33:00,
2013-03-31 03:38:00,54.4,26.6,29.93,NE,37,1.0,3.0,34,0.00,,SKC,0.00,VWS V14.01,2013-03-31 10:38:00,
2013-03-31 03:43:00,54.3,26.5,29.93,NE,37,0.0,3.0,34,0.00,,SKC,0.00,VWS V14.01,2013-03-31 10:43:00,
2013-03-31 03:49:00,54.3,26.5,29.93,NE,37,0.0,2.0,34,0.00,,SKC,0.00,VWS V14.01,2013-03-31 10:49:00,
2013-03-31 03:54:00,54.3,27.2,29.93,NE,37,0.0,2.0,35,0.00,,SKC,0.00,VWS V14.01,2013-03-31 10:54:00,
2013-03-31 03:59:00,53.8,26.8,29.93,NE,37,0.0,2.0,35,0.00,,SKC,0.00,VWS V14.01,2013-03-31 10:59:00,
2013-03-31 04:04:00,53.1,26.9,29.94,NE,37,0.0,0.0,36,0.00,,SKC,0.00,VWS V14.01,2013-03-31 11:04:00,
2013-03-31 04:09:00,52.5,26.3,29.94,NE,37,0.0,2.0,36,0.00,,SKC,0.00,VWS V14.01,2013-03-31 11:09:00,
2013-03-31 04:14:00,52.4,26.9,29.93,NE,37,0.0,2.0,37,0.00,,SKC,0.00,VWS V14.01,2013-03-31 11:14:00,
2013-03-31 04:19:00,52.2,26.7,29.94,NE,37,0.0,0.0,37,0.00,,SKC,0.00,VWS V14.01,2013-03-31 11:19:00,
2013-03-31 04:24:00,52.1,26.6,29.94,NE,37,0.0,0.0,37,0.00,,SKC,0.00,VWS V14.01,2013-03-31 11:24:00,
2013-03-31 04:29:00,52.2,26.7,29.94,NE,37,1.0,1.0,37,0.00,,SKC,0.00,VWS V14.01,2013-03-31 11:29:00,
2013-03-31 04:34:00,52.5,27.0,29.94,NE,37,0.0,0.0,37,0.00,,SKC,0.00,VWS V14.01,2013-03-31 11:34:00,
2013-03-31 04:39:00,52.5,27.0,29.94,NE,37,0.0,0.0,37,0.00,,SKC,0.00,VWS V14.01,2013-03-31 11:39:00,
2013-03-31 04:44:00,52.3,26.8,29.94,NE,37,0.0,0.0,37,0.00,,SKC,0.00,VWS V14.01,2013-03-31 11:44:00,
2013-03-31 04:49:00,52.2,26.7,29.94,NE,37,0.0,0.0,37,0.00,,SKC,0.00,VWS V14.01,2013-03-31 11:49:00,
2013-03-31 04:54:00,51.9,27.1,29.94,NE,37,0.0,0.0,38,0.00,,SKC,0.00,VWS V14.01,2013-03-31 11:54:00,
2013-03-31 04:59:00,51.7,26.9,29.94,NE,37,0.0,0.0,38,0.00,,SKC,0.00,VWS V14.01,2013-03-31 11:59:00,
2013-03-31 05:04:00,51.5,27.4,29.95,NE,37,0.0,0.0,39,0.00,,SKC,0.00,VWS V14.01,2013-03-31 12:04:00,
2013-03-31 05:10:00,51.4,27.3,29.95,NE,37,0.0,0.0,39,0.00,,SKC,0.00,VWS V14.01,2013-03-31 12:10:00,
2013-03-31 05:15:00,51.2,27.1,29.95,NE,37,0.0,0.0,39,0.00,,SKC,0.00,VWS V14.01,2013-03-31 12:15:00,
2013-03-31 05:20:00,51.0,27.5,29.95,NE,37,0.0,0.0,40,0.00,,SKC,0.00,VWS V14.01,2013-03-31 12:20:00,
2013-03-31 05:25:00,50.9,27.5,29.95,NE,37,0.0,0.0,40,0.00,,SKC,0.00,VWS V14.01,2013-03-31 12:25:00,
2013-03-31 05:30:00,50.7,27.3,29.95,NE,37,0.0,0.0,40,0.00,,SKC,0.00,VWS V14.01,2013-03-31 12:30:00,
2013-03-31 05:35:00,50.5,27.1,29.95,NE,37,0.0,0.0,40,0.00,,SKC,0.00,VWS V14.01,2013-03-31 12:35:00,
2013-03-31 05:40:00,50.3,27.5,29.95,NE,37,0.0,0.0,41,0.00,,SKC,0.00,VWS V14.01,2013-03-31 12:40:00,
2013-03-31 05:45:00,50.7,27.9,29.95,SE,128,0.0,0.0,41,0.00,,SKC,0.00,VWS V14.01,2013-03-31 12:45:00,
2013-03-31 05:50:00,51.3,28.4,29.95,SE,128,0.0,0.0,41,0.00,,SKC,0.00,VWS V14.01,2013-03-31 12:50:00,
2013-03-31 05:56:00,51.8,28.3,29.95,SE,129,0.0,0.0,40,0.00,,SKC,0.00,VWS V14.01,2013-03-31 12:56:00,
2013-03-31 06:01:00,52.1,28.5,29.95,SE,130,0.0,0.0,40,0.00,,SKC,0.00,VWS V14.01,2013-03-31 13:01:00,
2013-03-31 06:06:00,52.1,28.5,29.95,SE,129,0.0,0.0,40,0.00,,SKC,0.00,VWS V14.01,2013-03-31 13:06:00,
2013-03-31 06:11:00,51.7,28.2,29.95,SE,129,0.0,0.0,40,0.00,,SKC,0.00,VWS V14.01,2013-03-31 13:11:00,
2013-03-31 06:16:00,51.4,28.5,29.95,SE,129,0.0,0.0,41,0.00,,SKC,0.00,VWS V14.01,2013-03-31 13:16:00,
2013-03-31 06:21:00,50.9,28.1,29.96,SE,129,0.0,0.0,41,0.00,,SKC,0.00,VWS V14.01,2013-03-31 13:21:00,
2013-03-31 06:27:00,50.6,28.4,29.96,SE,129,0.0,0.0,42,0.00,,SKC,0.00,VWS V14.01,2013-03-31 13:27:00,
2013-03-31 06:32:00,51.0,28.1,29.96,SE,130,0.0,1.0,41,0.00,,SKC,0.00,VWS V14.01,2013-03-31 13:32:00,
2013-03-31 06:37:00,51.9,28.4,29.96,SE,130,0.0,1.0,40,0.00,,SKC,0.00,VWS V14.01,2013-03-31 13:37:00,
2013-03-31 06:42:00,52.8,28.5,29.96,SE,136,2.0,2.0,39,0.00,,SKC,0.00,VWS V14.01,2013-03-31 13:42:00,
2013-03-31 06:47:00,53.2,28.3,29.97,SE,136,0.0,0.0,38,0.00,,SKC,0.00,VWS V14.01,2013-03-31 13:47:00,
2013-03-31 06:52:00,53.5,28.5,29.97,SSE,148,2.0,3.0,38,0.00,,SKC,0.00,VWS V14.01,2013-03-31 13:52:00,
2013-03-31 06:57:00,53.7,28.7,29.97,SSE,164,1.0,3.0,38,0.00,,SKC,0.00,VWS V14.01,2013-03-31 13:57:00,
2013-03-31 07:02:00,54.1,29.1,29.97,SSE,167,0.0,0.0,38,0.00,,SKC,0.00,VWS V14.01,2013-03-31 14:02:00,
2013-03-31 07:07:00,54.5,28.8,29.98,SSE,167,0.0,1.0,37,0.00,,SKC,0.00,VWS V14.01,2013-03-31 14:07:00,
2013-03-31 07:12:00,55.1,29.3,29.98,SSE,167,0.0,1.0,37,0.00,,SKC,0.00,VWS V14.01,2013-03-31 14:12:00,
2013-03-31 07:17:00,55.9,29.4,29.98,SSE,167,0.0,0.0,36,0.00,,SKC,0.00,VWS V14.01,2013-03-31 14:17:00,
2013-03-31 07:22:00,56.6,29.3,29.98,SSE,167,0.0,0.0,35,0.00,,SKC,0.00,VWS V14.01,2013-03-31 14:22:00,
2013-03-31 07:27:00,57.3,29.2,29.98,SSE,167,0.0,1.0,34,0.00,,SKC,0.00,VWS V14.01,2013-03-31 14:27:00,
2013-03-31 07:32:00,58.0,29.8,29.98,SSE,167,0.0,0.0,34,0.00,,SKC,0.00,VWS V14.01,2013-03-31 14:32:00,
2013-03-31 07:37:00,58.5,30.2,29.98,WNW,298,0.0,0.0,34,0.00,,SKC,0.00,VWS V14.01,2013-03-31 14:37:00,
2013-03-31 07:42:00,59.0,30.0,29.98,WNW,298,0.0,1.0,33,0.00,,SKC,0.00,VWS V14.01,2013-03-31 14:42:00,
2013-03-31 07:47:00,59.0,30.0,29.98,WNW,298,0.0,0.0,33,0.00,,SKC,0.00,VWS V14.01,2013-03-31 14:47:00,
2013-03-31 07:53:00,59.3,30.2,29.99,WNW,298,0.0,0.0,33,0.00,,SKC,0.00,VWS V14.01,2013-03-31 14:53:00,
2013-03-31 07:58:00,59.9,30.8,29.98,WNW,298,0.0,0.0,33,0.00,,SKC,0.00,VWS V14.01,2013-03-31 14:58:00,
2013-03-31 08:03:00,61.0,31.0,29.98,WNW,298,0.0,0.0,32,0.00,,SKC,0.00,VWS V14.01,2013-03-31 15:03:00,
2013-03-31 08:08:00,62.7,31.6,29.98,WNW,298,0.0,0.0,31,0.00,,SKC,0.00,VWS V14.01,2013-03-31 15:08:00,
2013-03-31 08:13:00,63.6,31.6,29.98,WNW,298,0.0,0.0,30,0.00,,SKC,0.00,VWS V14.01,2013-03-31 15:13:00,
2013-03-31 08:18:00,63.8,31.8,29.98,WNW,298,0.0,0.0,30,0.00,,SKC,0.00,VWS V14.01,2013-03-31 15:18:00,
2013-03-31 08:23:00,64.3,32.2,29.98,SW,233,0.0,1.0,30,0.00,,SKC,0.00,VWS V14.01,2013-03-31 15:23:00,
2013-03-31 08:28:00,65.1,32.1,29.98,SW,225,0.0,1.0,29,0.00,,SKC,0.00,VWS V14.01,2013-03-31 15:28:00,
2013-03-31 08:33:00,66.0,32.0,29.98,SW,225,0.0,0.0,28,0.00,,SKC,0.00,VWS V14.01,2013-03-31 15:33:00,
2013-03-31 08:39:00,66.5,32.4,29.98,SW,224,1.0,1.0,28,0.00,,SKC,0.00,VWS V14.01,2013-03-31 15:39:00,
2013-03-31 08:44:00,67.1,32.0,29.98,SW,224,0.0,1.0,27,0.00,,SKC,0.00,VWS V14.01,2013-03-31 15:44:00,
2013-03-31 08:49:00,67.6,32.5,29.98,SW,221,0.0,0.0,27,0.00,,SKC,0.00,VWS V14.01,2013-03-31 15:49:00,
2013-03-31 08:54:00,68.6,32.4,29.98,SW,221,0.0,0.0,26,0.00,,SKC,0.00,VWS V14.01,2013-03-31 15:54:00,
2013-03-31 08:59:00,69.5,32.2,29.98,SW,221,0.0,1.0,25,0.00,,SKC,0.00,VWS V14.01,2013-03-31 15:59:00,
2013-03-31 09:04:00,70.2,32.8,29.98,SW,222,0.0,0.0,25,0.00,,SKC,0.00,VWS V14.01,2013-03-31 16:04:00,
2013-03-31 09:09:00,70.7,32.2,29.98,SW,222,0.0,2.0,24,0.00,,SKC,0.00,VWS V14.01,2013-03-31 16:09:00,
2013-03-31 09:14:00,70.9,32.3,29.98,SW,227,0.0,2.0,24,0.00,,SKC,0.00,VWS V14.01,2013-03-31 16:14:00,
2013-03-31 09:19:00,71.4,31.7,29.98,SW,233,0.0,0.0,23,0.00,,SKC,0.00,VWS V14.01,2013-03-31 16:19:00,
2013-03-31 09:24:00,72.2,32.4,29.98,West,276,0.0,3.0,23,0.00,,SKC,0.00,VWS V14.01,2013-03-31 16:24:00,
2013-03-31 09:29:00,73.1,32.0,29.98,West,277,0.0,3.0,22,0.00,,SKC,0.00,VWS V14.01,2013-03-31 16:29:00,
2013-03-31 09:34:00,73.6,32.5,29.98,WNW,303,1.0,3.0,22,0.00,,SKC,0.00,VWS V14.01,2013-03-31 16:34:00,
2013-03-31 09:40:00,73.7,32.5,29.98,WNW,289,0.0,3.0,22,0.00,,SKC,0.00,VWS V14.01,2013-03-31 16:40:00,
2013-03-31 09:45:00,74.1,32.9,29.98,West,263,0.0,4.0,22,0.00,,SKC,0.00,VWS V14.01,2013-03-31 16:45:00,
2013-03-31 09:50:00,74.4,32.0,29.98,West,276,0.0,3.0,21,0.00,,SKC,0.00,VWS V14.01,2013-03-31 16:50:00,
2013-03-31 09:55:00,75.1,32.5,29.97,NW,323,2.0,3.0,21,0.00,,SKC,0.00,VWS V14.01,2013-03-31 16:55:00,
2013-03-31 10:00:00,75.6,31.7,29.97,West,279,0.0,5.0,20,0.00,,SKC,0.00,VWS V14.01,2013-03-31 17:00:00,
2013-03-31 10:05:00,75.6,33.0,29.97,West,279,1.0,1.0,21,0.00,,SKC,0.00,VWS V14.01,2013-03-31 17:05:00,
2013-03-31 10:10:00,75.9,32.0,29.97,West,275,2.0,2.0,20,0.00,,SKC,0.00,VWS V14.01,2013-03-31 17:10:00,
2013-03-31 10:15:00,76.4,32.4,29.97,WNW,293,0.0,5.0,20,0.00,,SKC,0.00,VWS V14.01,2013-03-31 17:15:00,
2013-03-31 10:20:00,76.7,32.7,29.97,WNW,299,5.0,5.0,20,0.00,,SKC,0.00,VWS V14.01,2013-03-31 17:20:00,
2013-03-31 10:25:00,76.6,32.6,29.97,NW,319,2.0,7.0,20,0.00,,SKC,0.00,VWS V14.01,2013-03-31 17:25:00,
2013-03-31 10:30:00,76.9,31.5,29.97,NNW,327,0.0,7.0,19,0.00,,SKC,0.00,VWS V14.01,2013-03-31 17:30:00,
2013-03-31 10:35:00,77.3,31.9,29.97,WNW,300,0.0,1.0,19,0.00,,SKC,0.00,VWS V14.01,2013-03-31 17:35:00,
2013-03-31 10:40:00,77.2,31.8,29.97,WNW,282,0.0,3.0,19,0.00,,SKC,0.00,VWS V14.01,2013-03-31 17:40:00,
2013-03-31 10:45:00,77.4,32.0,29.97,NW,314,0.0,3.0,19,0.00,,SKC,0.00,VWS V14.01,2013-03-31 17:45:00,
2013-03-31 10:51:00,78.4,32.8,29.96,NW,315,0.0,1.0,19,0.00,,SKC,0.00,VWS V14.01,2013-03-31 17:51:00,
2013-03-31 10:56:00,78.8,33.1,29.96,NW,315,0.0,1.0,19,0.00,,SKC,0.00,VWS V14.01,2013-03-31 17:56:00,
2013-03-31 11:01:00,79.3,33.5,29.96,North,5,1.0,5.0,19,0.00,,SKC,0.00,VWS V14.01,2013-03-31 18:01:00,
2013-03-31 11:06:00,80.2,32.9,29.96,ENE,68,0.0,4.0,18,0.00,,SKC,0.00,VWS V14.01,2013-03-31 18:06:00,
2013-03-31 11:11:00,79.5,33.7,29.96,SE,143,2.0,9.0,19,0.00,,SKC,0.00,VWS V14.01,2013-03-31 18:11:00,
2013-03-31 11:16:00,78.7,33.0,29.96,ESE,102,0.0,9.0,19,0.00,,SKC,0.00,VWS V14.01,2013-03-31 18:16:00,
2013-03-31 11:21:00,78.4,32.8,29.96,ESE,103,0.0,1.0,19,0.00,,SKC,0.00,VWS V14.01,2013-03-31 18:21:00,
2013-03-31 11:26:00,79.0,33.3,29.96,NW,309,0.0,5.0,19,0.00,,SKC,0.00,VWS V14.01,2013-03-31 18:26:00,
2013-03-31 11:31:00,79.6,32.4,29.96,North,355,2.0,5.0,18,0.00,,SKC,0.00,VWS V14.01,2013-03-31 18:31:00,
2013-03-31 11:37:00,80.1,32.8,29.95,NE,53,0.0,4.0,18,0.00,,SKC,0.00,VWS V14.01,2013-03-31 18:37:00,
2013-03-31 11:42:00,80.3,33.0,29.95,NW,311,4.0,7.0,18,0.00,,SKC,0.00,VWS V14.01,2013-03-31 18:42:00,
2013-03-31 11:47:00,80.8,33.4,29.96,WSW,248,5.0,7.0,18,0.00,,SKC,0.00,VWS V14.01,2013-03-31 18:47:00,
2013-03-31 11:52:00,80.4,31.6,29.95,SSW,213,3.0,5.0,17,0.00,,SKC,0.00,VWS V14.01,2013-03-31 18:52:00,
2013-03-31 11:57:00,80.6,33.2,29.95,West,259,0.0,5.0,18,0.00,,SKC,0.00,VWS V14.01,2013-03-31 18:57:00,
2013-03-31 12:02:00,80.6,31.8,29.95,West,261,0.0,2.0,17,0.00,,SKC,0.00,VWS V14.01,2013-03-31 19:02:00,
2013-03-31 12:07:00,80.7,33.3,29.95,SW,231,2.0,5.0,18,0.00,,SKC,0.00,VWS V14.01,2013-03-31 19:07:00,
2013-03-31 12:12:00,80.5,33.1,29.95,SW,223,1.0,5.0,18,0.00,,SKC,0.00,VWS V14.01,2013-03-31 19:12:00,
2013-03-31 12:17:00,80.6,31.8,29.95,South,179,0.0,2.0,17,0.00,,SKC,0.00,VWS V14.01,2013-03-31 19:17:00,
2013-03-31 12:22:00,81.2,32.3,29.94,NW,318,7.0,7.0,17,0.00,,SKC,0.00,VWS V14.01,2013-03-31 19:22:00,
2013-03-31 12:28:00,81.5,32.5,29.94,WSW,249,5.0,8.0,17,0.00,,SKC,0.00,VWS V14.01,2013-03-31 19:28:00,
2013-03-31 12:33:00,80.9,32.0,29.94,NW,319,2.0,5.0,17,0.00,,SKC,0.00,VWS V14.01,2013-03-31 19:33:00,
2013-03-31 12:38:00,81.2,32.3,29.93,West,280,0.0,6.0,17,0.00,,SKC,0.00,VWS V14.01,2013-03-31 19:38:00,
2013-03-31 12:43:00,82.3,33.2,29.93,NW,309,0.0,8.0,17,0.00,,SKC,0.00,VWS V14.01,2013-03-31 19:43:00,
2013-03-31 12:48:00,82.7,33.5,29.93,WNW,302,4.0,4.0,17,0.00,,SKC,0.00,VWS V14.01,2013-03-31 19:48:00,
2013-03-31 12:53:00,82.3,33.2,29.93,WNW,298,0.0,7.0,17,0.00,,SKC,0.00,VWS V14.01,2013-03-31 19:53:00,
2013-03-31 12:59:00,81.9,32.8,29.93,SSW,211,0.0,7.0,17,0.00,,SKC,0.00,VWS V14.01,2013-03-31 19:59:00,
2013-03-31 13:04:00,81.9,32.8,29.92,SSW,202,4.0,6.0,17,0.00,,SKC,0.00,VWS V14.01,2013-03-31 20:04:00,
2013-03-31 13:09:00,81.6,32.6,29.92,SSE,160,1.0,6.0,17,0.00,,SKC,0.00,VWS V14.01,2013-03-31 20:09:00,
2013-03-31 13:14:00,82.3,33.2,29.92,South,184,4.0,8.0,17,0.00,,SKC,0.00,VWS V14.01,2013-03-31 20:14:00,
2013-03-31 13:19:00,81.8,32.8,29.91,West,263,0.0,6.0,17,0.00,,SKC,0.00,VWS V14.01,2013-03-31 20:19:00,
2013-03-31 13:24:00,82.0,32.9,29.91,South,187,0.0,6.0,17,0.00,,SKC,0.00,VWS V14.01,2013-03-31 20:24:00,
2013-03-31 13:29:00,82.0,32.9,29.91,SSE,149,0.0,6.0,17,0.00,,SKC,0.00,VWS V14.01,2013-03-31 20:29:00,
2013-03-31 13:34:00,82.6,33.4,29.91,WNW,290,2.0,8.0,17,0.00,,SKC,0.00,VWS V14.01,2013-03-31 20:34:00,
2013-03-31 13:39:00,82.3,33.2,29.91,SW,236,3.0,8.0,17,0.00,,SKC,0.00,VWS V14.01,2013-03-31 20:39:00,
2013-03-31 13:44:00,82.5,33.3,29.90,SW,217,0.0,8.0,17,0.00,,SKC,0.00,VWS V14.01,2013-03-31 20:44:00,
2013-03-31 13:50:00,83.8,32.9,29.90,NNE,22,5.0,6.0,16,0.00,,SKC,0.00,VWS V14.01,2013-03-31 20:50:00,
2013-03-31 13:55:00,85.1,33.9,29.90,NNW,339,4.0,7.0,16,0.00,,SKC,0.00,VWS V14.01,2013-03-31 20:55:00,
2013-03-31 14:00:00,85.4,34.2,29.90,WNW,303,8.0,8.0,16,0.00,,SKC,0.00,VWS V14.01,2013-03-31 21:00:00,
2013-03-31 14:05:00,84.7,33.6,29.89,NW,312,6.0,12.0,16,0.00,,SKC,0.00,VWS V14.01,2013-03-31 21:05:00,
2013-03-31 14:10:00,83.9,33.0,29.89,West,273,1.0,12.0,16,0.00,,SKC,0.00,VWS V14.01,2013-03-31 21:10:00,
2013-03-31 14:15:00,84.3,33.3,29.89,NW,309,0.0,12.0,16,0.00,,SKC,0.00,VWS V14.01,2013-03-31 21:15:00,
2013-03-31 14:20:00,85.3,34.1,29.88,NNE,24,0.0,6.0,16,0.00,,SKC,0.00,VWS V14.01,2013-03-31 21:20:00,
2013-03-31 14:25:00,85.8,34.5,29.88,NNW,343,5.0,8.0,16,0.00,,SKC,0.00,VWS V14.01,2013-03-31 21:25:00,
2013-03-31 14:30:00,85.8,34.5,29.88,NNW,336,0.0,8.0,16,0.00,,SKC,0.00,VWS V14.01,2013-03-31 21:30:00,
2013-03-31 14:35:00,84.2,33.2,29.87,East,82,0.0,10.0,16,0.00,,SKC,0.00,VWS V14.01,2013-03-31 21:35:00,
2013-03-31 14:40:00,83.8,32.9,29.87,East,81,0.0,10.0,16,0.00,,SKC,0.00,VWS V14.01,2013-03-31 21:40:00,
2013-03-31 14:45:00,83.8,32.9,29.87,NNE,26,6.0,10.0,16,0.00,,SKC,0.00,VWS V14.01,2013-03-31 21:45:00,
2013-03-31 14:50:00,84.0,33.0,29.87,NE,45,2.0,6.0,16,0.00,,SKC,0.00,VWS V14.01,2013-03-31 21:50:00,
2013-03-31 14:55:00,84.7,33.6,29.86,NW,326,1.0,8.0,16,0.00,,SKC,0.00,VWS V14.01,2013-03-31 21:55:00,
2013-03-31 15:00:00,85.2,34.0,29.86,WNW,286,3.0,9.0,16,0.00,,SKC,0.00,VWS V14.01,2013-03-31 22:00:00,
2013-03-31 15:06:00,85.0,33.8,29.86,West,273,0.0,7.0,16,0.00,,SKC,0.00,VWS V14.01,2013-03-31 22:06:00,
2013-03-31 15:11:00,84.8,33.7,29.86,West,263,0.0,7.0,16,0.00,,SKC,0.00,VWS V14.01,2013-03-31 22:11:00,
2013-03-31 15:16:00,85.0,33.8,29.86,NNW,340,3.0,9.0,16,0.00,,SKC,0.00,VWS V14.01,2013-03-31 22:16:00,
2013-03-31 15:21:00,85.0,33.8,29.85,NE,38,5.0,8.0,16,0.00,,SKC,0.00,VWS V14.01,2013-03-31 22:21:00,
2013-03-31 15:26:00,84.6,33.5,29.85,NE,36,2.0,8.0,16,0.00,,SKC,0.00,VWS V14.01,2013-03-31 22:26:00,
2013-03-31 15:31:00,85.1,33.9,29.85,NW,322,2.0,8.0,16,0.00,,SKC,0.00,VWS V14.01,2013-03-31 22:31:00,
2013-03-31 15:37:00,85.7,32.8,29.85,WNW,295,3.0,8.0,15,0.00,,SKC,0.00,VWS V14.01,2013-03-31 22:37:00,
2013-03-31 15:42:00,85.0,32.2,29.85,WNW,294,0.0,8.0,15,0.00,,SKC,0.00,VWS V14.01,2013-03-31 22:42:00,
2013-03-31 15:47:00,84.6,31.9,29.85,WNW,294,1.0,8.0,15,0.00,,SKC,0.00,VWS V14.01,2013-03-31 22:47:00,
2013-03-31 15:52:00,85.0,32.2,29.84,NNE,18,6.0,8.0,15,0.00,,SKC,0.00,VWS V14.01,2013-03-31 22:52:00,
2013-03-31 15:57:00,85.1,32.3,29.84,NNE,18,0.0,8.0,15,0.00,,SKC,0.00,VWS V14.01,2013-03-31 22:57:00,
2013-03-31 16:02:00,85.5,32.6,29.83,WNW,294,9.0,9.0,15,0.00,,SKC,0.00,VWS V14.01,2013-03-31 23:02:00,
2013-03-31 16:07:00,85.5,32.6,29.83,NNW,335,2.0,11.0,15,0.00,,SKC,0.00,VWS V14.01,2013-03-31 23:07:00,
2013-03-31 16:12:00,85.9,32.9,29.84,NE,34,6.0,11.0,15,0.00,,SKC,0.00,VWS V14.01,2013-03-31 23:12:00,
2013-03-31 16:17:00,86.1,33.1,29.83,North,349,5.0,5.0,15,0.00,,SKC,0.00,VWS V14.01,2013-03-31 23:17:00,
2013-03-31 16:22:00,86.2,33.2,29.83,NE,49,9.0,9.0,15,0.00,,SKC,0.00,VWS V14.01,2013-03-31 23:22:00,
2013-03-31 16:27:00,85.1,32.3,29.83,NNE,24,9.0,9.0,15,0.00,,SKC,0.00,VWS V14.01,2013-03-31 23:27:00,
2013-03-31 16:32:00,85.3,32.5,29.83,North,360,5.0,9.0,15,0.00,,SKC,0.00,VWS V14.01,2013-03-31 23:32:00,
2013-03-31 16:37:00,85.5,32.6,29.83,NNW,330,1.0,11.0,15,0.00,,SKC,0.00,VWS V14.01,2013-03-31 23:37:00,
2013-03-31 16:42:00,85.7,32.8,29.83,NE,49,7.0,11.0,15,0.00,,SKC,0.00,VWS V14.01,2013-03-31 23:42:00,
2013-03-31 16:47:00,85.5,32.6,29.83,North,349,3.0,13.0,15,0.00,,SKC,0.00,VWS V14.01,2013-03-31 23:47:00,
2013-03-31 16:52:00,85.5,32.6,29.82,NNW,348,0.0,13.0,15,0.00,,SKC,0.00,VWS V14.01,2013-03-31 23:52:00,
2013-03-31 16:58:00,85.1,32.3,29.82,NNW,341,2.0,13.0,15,0.00,,SKC,0.00,VWS V14.01,2013-03-31 23:58:00,
2013-03-31 17:03:00,84.9,32.2,29.82,North,9,4.0,9.0,15,0.00,,SKC,0.00,VWS V14.01,2013-04-01 00:03:00,
2013-03-31 17:08:00,85.3,32.5,29.83,NE,38,10.0,10.0,15,0.00,,SKC,0.00,VWS V14.01,2013-04-01 00:08:00,
2013-03-31 17:13:00,85.1,32.3,29.83,NNW,339,5.0,11.0,15,0.00,,SKC,0.00,VWS V14.01,2013-04-01 00:13:00,
2013-03-31 17:18:00,84.8,32.1,29.82,ENE,59,8.0,8.0,15,0.00,,SKC,0.00,VWS V14.01,2013-04-01 00:18:00,
2013-03-31 17:23:00,83.9,33.0,29.82,NNE,29,5.0,9.0,16,0.00,,SKC,0.00,VWS V14.01,2013-04-01 00:23:00,
2013-03-31 17:28:00,84.3,31.7,29.82,North,11,0.0,9.0,15,0.00,,SKC,0.00,VWS V14.01,2013-04-01 00:28:00,
2013-03-31 17:33:00,84.5,31.8,29.82,North,355,0.0,6.0,15,0.00,,SKC,0.00,VWS V14.01,2013-04-01 00:33:00,
2013-03-31 17:38:00,84.8,32.1,29.82,NW,321,2.0,6.0,15,0.00,,SKC,0.00,VWS V14.01,2013-04-01 00:38:00,
2013-03-31 17:43:00,84.9,32.2,29.82,NNW,331,1.0,10.0,15,0.00,,SKC,0.00,VWS V14.01,2013-04-01 00:43:00,
2013-03-31 17:48:00,85.0,32.2,29.82,North,360,1.0,6.0,15,0.00,,SKC,0.00,VWS V14.01,2013-04-01 00:48:00,
2013-03-31 17:53:00,84.3,31.7,29.82,NNE,26,4.0,12.0,15,0.00,,SKC,0.00,VWS V14.01,2013-04-01 00:53:00,
2013-03-31 17:58:00,83.9,31.4,29.82,NE,44,2.0,12.0,15,0.00,,SKC,0.00,VWS V14.01,2013-04-01 00:58:00,
2013-03-31 18:03:00,83.8,31.3,29.82,NNW,348,0.0,10.0,15,0.00,,SKC,0.00,VWS V14.01,2013-04-01 01:03:00,
2013-03-31 18:09:00,84.1,31.5,29.82,North,350,3.0,10.0,15,0.00,,SKC,0.00,VWS V14.01,2013-04-01 01:09:00,
2013-03-31 18:14:00,83.8,32.9,29.82,NNW,346,1.0,10.0,16,0.00,,SKC,0.00,VWS V14.01,2013-04-01 01:14:00,
2013-03-31 18:19:00,83.0,32.2,29.82,North,355,3.0,3.0,16,0.00,,SKC,0.00,VWS V14.01,2013-04-01 01:19:00,
2013-03-31 18:24:00,82.1,31.5,29.82,NNW,329,1.0,5.0,16,0.00,,SKC,0.00,VWS V14.01,2013-04-01 01:24:00,
2013-03-31 18:29:00,81.5,31.0,29.83,NNW,344,5.0,5.0,16,0.00,,SKC,0.00,VWS V14.01,2013-04-01 01:29:00,
2013-03-31 18:34:00,81.2,30.8,29.83,NNW,331,2.0,6.0,16,0.00,,SKC,0.00,VWS V14.01,2013-04-01 01:34:00,
2013-03-31 18:39:00,80.6,30.3,29.83,NW,325,6.0,7.0,16,0.00,,SKC,0.00,VWS V14.01,2013-04-01 01:39:00,
2013-03-31 18:44:00,80.1,29.9,29.83,NNW,330,0.0,7.0,16,0.00,,SKC,0.00,VWS V14.01,2013-04-01 01:44:00,
2013-03-31 18:49:00,79.4,29.3,29.83,NNW,330,0.0,6.0,16,0.00,,SKC,0.00,VWS V14.01,2013-04-01 01:49:00,
2013-03-31 18:54:00,78.7,30.3,29.83,NNW,329,0.0,6.0,17,0.00,,SKC,0.00,VWS V14.01,2013-04-01 01:54:00,
2013-03-31 18:59:00,78.1,29.8,29.83,NNW,327,0.0,6.0,17,0.00,,SKC,0.00,VWS V14.01,2013-04-01 01:59:00,
2013-03-31 19:04:00,77.7,29.5,29.83,NW,322,0.0,3.0,17,0.00,,SKC,0.00,VWS V14.01,2013-04-01 02:04:00,
2013-03-31 19:09:00,77.3,29.1,29.83,NNW,328,1.0,3.0,17,0.00,,SKC,0.00,VWS V14.01,2013-04-01 02:09:00,
2013-03-31 19:14:00,76.8,30.1,29.83,NNW,327,1.0,4.0,18,0.00,,SKC,0.00,VWS V14.01,2013-04-01 02:14:00,
2013-03-31 19:19:00,76.2,29.6,29.83,NNW,327,0.0,1.0,18,0.00,,SKC,0.00,VWS V14.01,2013-04-01 02:19:00,
2013-03-31 19:24:00,75.7,29.2,29.83,NNW,327,0.0,1.0,18,0.00,,SKC,0.00,VWS V14.01,2013-04-01 02:24:00,
2013-03-31 19:29:00,75.2,28.8,29.83,NW,311,1.0,2.0,18,0.00,,SKC,0.00,VWS V14.01,2013-04-01 02:29:00,
2013-03-31 19:35:00,75.0,28.7,29.83,NW,317,0.0,0.0,18,0.00,,SKC,0.00,VWS V14.01,2013-04-01 02:35:00,
2013-03-31 19:40:00,74.8,28.5,29.84,NW,317,0.0,0.0,18,0.00,,SKC,0.00,VWS V14.01,2013-04-01 02:40:00,
2013-03-31 19:45:00,74.4,28.2,29.84,NW,317,0.0,3.0,18,0.00,,SKC,0.00,VWS V14.01,2013-04-01 02:45:00,
2013-03-31 19:50:00,74.1,27.9,29.84,NW,311,2.0,3.0,18,0.00,,SKC,0.00,VWS V14.01,2013-04-01 02:50:00,
2013-03-31 19:55:00,74.0,27.9,29.84,NW,322,3.0,6.0,18,0.00,,SKC,0.00,VWS V14.01,2013-04-01 02:55:00,
2013-03-31 20:00:00,74.0,27.9,29.84,NW,322,0.0,6.0,18,0.00,,SKC,0.00,VWS V14.01,2013-04-01 03:00:00,
2013-03-31 20:05:00,73.9,27.8,29.84,NW,322,0.0,0.0,18,0.00,,SKC,0.00,VWS V14.01,2013-04-01 03:05:00,
2013-03-31 20:10:00,73.6,27.5,29.84,NW,322,0.0,0.0,18,0.00,,SKC,0.00,VWS V14.01,2013-04-01 03:10:00,
2013-03-31 20:15:00,72.8,26.9,29.84,NW,322,0.0,0.0,18,0.00,,SKC,0.00,VWS V14.01,2013-04-01 03:15:00,
2013-03-31 20:20:00,71.9,27.4,29.85,NW,322,0.0,0.0,19,0.00,,SKC,0.00,VWS V14.01,2013-04-01 03:20:00,
2013-03-31 20:25:00,71.2,26.9,29.85,NW,322,0.0,0.0,19,0.00,,SKC,0.00,VWS V14.01,2013-04-01 03:25:00,
2013-03-31 20:30:00,70.5,26.3,29.85,NW,322,0.0,0.0,19,0.00,,SKC,0.00,VWS V14.01,2013-04-01 03:30:00,
2013-03-31 20:35:00,70.1,26.0,29.85,NW,326,0.0,1.0,19,0.00,,SKC,0.00,VWS V14.01,2013-04-01 03:35:00,
2013-03-31 20:41:00,70.0,25.9,29.86,NW,326,0.0,1.0,19,0.00,,SKC,0.00,VWS V14.01,2013-04-01 03:41:00,
2013-03-31 20:47:00,69.5,25.5,29.86,NW,326,0.0,1.0,19,0.00,,SKC,0.00,VWS V14.01,2013-04-01 03:47:00,
2013-03-31 20:52:00,69.2,26.5,29.86,NW,326,0.0,0.0,20,0.00,,SKC,0.00,VWS V14.01,2013-04-01 03:52:00,
2013-03-31 20:57:00,68.8,26.1,29.86,NW,326,0.0,0.0,20,0.00,,SKC,0.00,VWS V14.01,2013-04-01 03:57:00,
2013-03-31 21:00:00,68.7,26.0,29.86,NW,326,0.0,0.0,20,0.00,,SKC,0.00,VWS V14.01,2013-04-01 04:00:00,
2013-03-31 21:01:00,68.7,26.0,29.86,NW,326,0.0,0.0,20,0.00,,SKC,0.00,VWS V14.01,2013-04-01 04:01:00,
2013-03-31 21:06:00,68.4,24.6,29.86,NW,326,0.0,0.0,19,0.00,,SKC,0.00,VWS V14.01,2013-04-01 04:06:00,
2013-03-31 21:11:00,68.6,26.0,29.86,NW,326,0.0,0.0,20,0.00,,SKC,0.00,VWS V14.01,2013-04-01 04:11:00,
2013-03-31 21:13:00,68.6,26.0,29.86,NW,326,0.0,0.0,20,0.00,,SKC,0.00,VWS V14.01,2013-04-01 04:13:00,
2013-03-31 21:18:00,68.6,24.7,29.87,NW,326,0.0,0.0,19,0.00,,SKC,0.00,VWS V14.01,2013-04-01 04:18:00,
2013-03-31 21:23:00,68.6,24.7,29.87,NW,326,0.0,0.0,19,0.00,,SKC,0.00,VWS V14.01,2013-04-01 04:23:00,
2013-03-31 21:28:00,68.8,24.9,29.87,NW,326,0.0,1.0,19,0.00,,SKC,0.00,VWS V14.01,2013-04-01 04:28:00,
2013-03-31 21:33:00,68.9,25.0,29.87,NW,326,0.0,0.0,19,0.00,,SKC,0.00,VWS V14.01,2013-04-01 04:33:00,
2013-03-31 21:38:00,68.8,24.9,29.87,NW,326,0.0,0.0,19,0.00,,SKC,0.00,VWS V14.01,2013-04-01 04:38:00,
2013-03-31 21:44:00,69.0,25.1,29.87,NW,319,0.0,1.0,19,0.00,,SKC,0.00,VWS V14.01,2013-04-01 04:44:00,
2013-03-31 21:49:00,69.1,25.1,29.88,NW,319,0.0,0.0,19,0.00,,SKC,0.00,VWS V14.01,2013-04-01 04:49:00,
2013-03-31 21:54:00,69.0,25.1,29.88,NW,319,2.0,2.0,19,0.00,,SKC,0.00,VWS V14.01,2013-04-01 04:54:00,
2013-03-31 21:59:00,68.8,24.9,29.88,NW,319,0.0,2.0,19,0.00,,SKC,0.00,VWS V14.01,2013-04-01 04:59:00,
2013-03-31 22:04:00,68.4,25.8,29.88,NW,319,0.0,0.0,20,0.00,,SKC,0.00,VWS V14.01,2013-04-01 05:04:00,
2013-03-31 22:09:00,67.7,25.2,29.88,NW,320,0.0,0.0,20,0.00,,SKC,0.00,VWS V14.01,2013-04-01 05:09:00,
2013-03-31 22:14:00,67.0,24.6,29.88,NW,320,0.0,0.0,20,0.00,,SKC,0.00,VWS V14.01,2013-04-01 05:14:00,
2013-03-31 22:19:00,66.3,25.2,29.89,NNW,330,0.0,3.0,21,0.00,,SKC,0.00,VWS V14.01,2013-04-01 05:19:00,
2013-03-31 22:24:00,66.0,25.0,29.89,NNW,330,0.0,3.0,21,0.00,,SKC,0.00,VWS V14.01,2013-04-01 05:24:00,
2013-03-31 22:29:00,65.8,24.8,29.89,NNW,330,0.0,3.0,21,0.00,,SKC,0.00,VWS V14.01,2013-04-01 05:29:00,
2013-03-31 22:34:00,65.2,24.3,29.89,NNW,330,0.0,0.0,21,0.00,,SKC,0.00,VWS V14.01,2013-04-01 05:34:00,
2013-03-31 22:39:00,64.8,25.1,29.89,NNW,330,0.0,0.0,22,0.00,,SKC,0.00,VWS V14.01,2013-04-01 05:39:00,
2013-03-31 22:44:00,64.6,24.9,29.89,NNW,330,0.0,0.0,22,0.00,,SKC,0.00,VWS V14.01,2013-04-01 05:44:00,
2013-03-31 22:49:00,64.5,24.8,29.89,NNW,330,0.0,0.0,22,0.00,,SKC,0.00,VWS V14.01,2013-04-01 05:49:00,
2013-03-31 22:54:00,64.7,26.1,29.88,NNW,330,0.0,0.0,23,0.00,,SKC,0.00,VWS V14.01,2013-04-01 05:54:00,
2013-03-31 22:59:00,64.7,27.1,29.88,NNW,330,0.0,0.0,24,0.00,,SKC,0.00,VWS V14.01,2013-04-01 05:59:00,
2013-03-31 23:05:00,64.5,26.9,29.88,NNW,330,0.0,0.0,24,0.00,,SKC,0.00,VWS V14.01,2013-04-01 06:05:00,
2013-03-31 23:10:00,64.1,26.6,29.88,NNW,330,0.0,0.0,24,0.00,,SKC,0.00,VWS V14.01,2013-04-01 06:10:00,
2013-03-31 23:15:00,63.8,26.3,29.88,NNW,330,0.0,0.0,24,0.00,,SKC,0.00,VWS V14.01,2013-04-01 06:15:00,
2013-03-31 23:20:00,63.4,26.0,29.89,NNW,330,0.0,0.0,24,0.00,,SKC,0.00,VWS V14.01,2013-04-01 06:20:00,
2013-03-31 23:25:00,63.1,26.7,29.89,NNW,330,0.0,0.0,25,0.00,,SKC,0.00,VWS V14.01,2013-04-01 06:25:00,
2013-03-31 23:30:00,62.8,27.4,29.89,NNW,330,0.0,0.0,26,0.00,,SKC,0.00,VWS V14.01,2013-04-01 06:30:00,
2013-03-31 23:35:00,62.7,27.4,29.89,NNW,330,0.0,0.0,26,0.00,,SKC,0.00,VWS V14.01,2013-04-01 06:35:00,
2013-03-31 23:40:00,62.5,27.2,29.89,NNW,330,0.0,1.0,26,0.00,,SKC,0.00,VWS V14.01,2013-04-01 06:40:00,
2013-03-31 23:45:00,62.7,28.3,29.89,NNW,330,0.0,1.0,27,0.00,,SKC,0.00,VWS V14.01,2013-04-01 06:45:00,
2013-03-31 23:50:00,62.7,28.3,29.89,NNW,330,0.0,0.0,27,0.00,,SKC,0.00,VWS V14.01,2013-04-01 06:50:00,
2013-03-31 23:55:00,62.7,28.3,29.89,NNW,330,0.0,1.0,27,0.00,,SKC,0.00,VWS V14.01,2013-04-01 06:55:00,